Location: Holyhead Bay
(53.3667°N, 4.6667°W)
Time: 11:16:37
(UTC+00:00)

Cosmos 2360 Rocket - Pass Details

Date: 20 April 2021
Orbit: 833 x 845 km, 71.0° (Epoch: 08 May)

Event Time Altitude Azimuth Distance (km) Brightness Sun altitude
Rises 20:00:21 0° 322° (NW) 3,415 6.8 -5.1°
Reaches altitude 10° 20:03:12 10° 309° (NW) 2,473 6.4 -5.5°
Maximum altitude 20:07:40 24° 257° (WSW) 1,663 4.4 -6.1°
Drops below altitude 10° 20:12:06 10° 205° (SSW) 2,453 4.6 -6.6°
Sets 20:14:56 0° 192° (SSW) 3,380 5.1 -7.0°
